TimeEDT,TemperatureF,Dew PointF,Humidity,Sea Level PressureIn,VisibilityMPH,Wind Direction,Wind SpeedMPH,Gust SpeedMPH,PrecipitationIn,Events,Conditions,WindDirDegrees,DateUTC
12:53 AM,61.0,57.0,87,30.26,7.0,Calm,Calm,-,N/A,,Overcast,0,2012-03-22 04:53:00
1:11 AM,60.8,57.2,88,30.26,6.0,Calm,Calm,-,N/A,,Overcast,0,2012-03-22 05:11:00
1:53 AM,61.0,57.0,87,30.24,6.0,Calm,Calm,-,N/A,,Overcast,0,2012-03-22 05:53:00
2:53 AM,60.1,57.0,90,30.22,6.0,Calm,Calm,-,N/A,,Overcast,0,2012-03-22 06:53:00
3:53 AM,59.0,57.0,93,30.21,6.0,Calm,Calm,-,N/A,,Overcast,0,2012-03-22 07:53:00
4:53 AM,60.1,57.0,90,30.21,5.0,Calm,Calm,-,N/A,,Overcast,0,2012-03-22 08:53:00
5:53 AM,60.1,57.0,90,30.22,5.0,Calm,Calm,-,N/A,,Mostly Cloudy,0,2012-03-22 09:53:00
6:21 AM,57.2,55.4,94,30.22,2.0,Calm,Calm,-,N/A,,Mostly Cloudy,0,2012-03-22 10:21:00
6:43 AM,57.2,55.4,94,30.23,1.0,Calm,Calm,-,N/A,,Mostly Cloudy,0,2012-03-22 10:43:00
6:53 AM,55.9,55.0,97,30.22,0.8,Calm,Calm,-,N/A,,Scattered Clouds,0,2012-03-22 10:53:00
6:58 AM,55.4,53.6,94,30.23,0.2,Calm,Calm,-,N/A,Fog,Fog,0,2012-03-22 10:58:00
7:13 AM,55.4,55.4,100,30.23,0.5,Calm,Calm,-,N/A,Fog,Fog,0,2012-03-22 11:13:00
7:37 AM,57.2,55.4,94,30.23,0.2,Calm,Calm,-,N/A,Fog,Fog,0,2012-03-22 11:37:00
7:41 AM,55.4,55.4,100,30.23,1.2,Calm,Calm,-,N/A,,Partly Cloudy,0,2012-03-22 11:41:00
7:53 AM,55.0,55.0,100,30.24,1.2,Calm,Calm,-,N/A,,Scattered Clouds,0,2012-03-22 11:53:00
8:53 AM,60.1,57.9,93,30.24,2.0,Calm,Calm,-,N/A,,Partly Cloudy,0,2012-03-22 12:53:00
9:14 AM,62.6,57.2,82,30.24,3.0,Calm,Calm,-,N/A,,Partly Cloudy,0,2012-03-22 13:14:00
9:53 AM,64.9,57.9,78,30.23,6.0,Calm,Calm,-,N/A,,Haze,0,2012-03-22 13:53:00
10:15 AM,64.4,57.2,77,30.23,6.0,Calm,Calm,-,N/A,,Haze,0,2012-03-22 14:15:00
10:33 AM,66.2,59.0,78,30.23,7.0,Calm,Calm,-,N/A,,Scattered Clouds,0,2012-03-22 14:33:00
10:53 AM,66.9,59.0,76,30.22,9.0,Calm,Calm,-,N/A,,Mostly Cloudy,0,2012-03-22 14:53:00
11:53 AM,69.1,59.0,70,30.20,9.0,West,3.5,-,N/A,,Mostly Cloudy,280,2012-03-22 15:53:00
12:13 PM,71.6,60.8,69,30.20,10.0,Calm,Calm,-,N/A,,Scattered Clouds,0,2012-03-22 16:13:00
12:53 PM,73.0,60.1,64,30.18,10.0,Calm,Calm,-,N/A,,Clear,0,2012-03-22 16:53:00
1:53 PM,77.0,60.1,56,30.15,10.0,North,6.9,-,N/A,,Partly Cloudy,360,2012-03-22 17:53:00
2:53 PM,77.0,59.0,54,30.11,10.0,NE,5.8,-,N/A,,Clear,50,2012-03-22 18:53:00
3:53 PM,78.1,60.1,54,30.09,10.0,ESE,10.4,-,N/A,,Partly Cloudy,110,2012-03-22 19:53:00
4:53 PM,77.0,60.1,56,30.08,10.0,ESE,5.8,-,N/A,,Clear,120,2012-03-22 20:53:00
5:53 PM,77.0,60.1,56,30.08,10.0,East,8.1,-,N/A,,Clear,100,2012-03-22 21:53:00
6:53 PM,75.0,60.1,60,30.09,10.0,East,8.1,-,N/A,,Clear,100,2012-03-22 22:53:00
7:53 PM,70.0,59.0,68,30.11,10.0,East,3.5,-,N/A,,Clear,80,2012-03-22 23:53:00
8:53 PM,69.1,59.0,70,30.12,10.0,North,3.5,-,N/A,,Clear,10,2012-03-23 00:53:00
9:53 PM,68.0,59.0,73,30.12,10.0,North,3.5,-,N/A,,Clear,360,2012-03-23 01:53:00
10:53 PM,64.0,57.9,80,30.12,9.0,Calm,Calm,-,N/A,,Clear,0,2012-03-23 02:53:00
11:53 PM,63.0,57.9,84,30.12,8.0,Calm,Calm,-,N/A,,Clear,0,2012-03-23 03:53:00